Hourly Data Report for October 31, 2015

All times are specified in Local Standard Time (LST). Add 1 hour to adjust for Daylight Saving Time where and when it is observed.

SAINT JOHN A
NEW BRUNSWICK

45°18'58.000" N
65°53'24.000" W
108.80 m
8104901
71609
YSJ

Download Data

Hourly Data (October 2015)
Hourly Data Report for October 31, 2015
Temp Definition
°C
Dew Point Temp Definition
°C
Rel Hum Definition
%
Wind Dir Definition
10's deg

Wind Spd Definition
km/h
Visibility Definition
km
Stn Press Definition
kPa
Hmdx Definition


Wind Chill Definition


Weather Definition


TIME
00:00 Legend Double Dagger 2.3 -5.8 55 30 24 24.1 99.90     LegendNANA
01:00 Legend Double Dagger 1.8 -5.8 57 30 24 24.1 99.99     LegendNANA
02:00 Legend Double Dagger 1.3 -5.6 60 30 21 24.1 100.05     Clear
03:00 Legend Double Dagger 0.8 -5.7 62 29 18 24.1 100.13     LegendNANA
04:00 Legend Double Dagger 0.4 -6.1 62 31 18 24.1 100.17     LegendNANA
05:00 Legend Double Dagger -0.2 -6.0 65 32 18 24.1 100.20   -5 Clear
06:00 Legend Double Dagger -0.4 -6.0 66 32 23 24.1 100.30   -6 LegendNANA
07:00 Legend Double Dagger -0.5 -6.1 66 31 14 24.1 100.42   -5 LegendNANA
08:00 Legend Double Dagger 0.3 -5.9 63 32 18 24.1 100.46     Mainly Clear
09:00 Legend Double Dagger 1.7 -5.5 59 31 22 24.1 100.54     LegendNANA
10:00 Legend Double Dagger 3.1 -5.3 54 32 24 24.1 100.57     LegendNANA
11:00 Legend Double Dagger 4.4 -5.4 49 31 16 24.1 100.58     Mainly Clear
12:00 Legend Double Dagger 5.8 -5.5 44 32 15 24.1 100.53     LegendNANA
13:00 Legend Double Dagger 6.9 -5.1 42 30 13 24.1 100.57     LegendNANA
14:00 Legend Double Dagger 8.0 -5.8 37 27 15 24.1 100.59     Mainly Clear
15:00 Legend Double Dagger 8.6 -4.9 38 29 17 24.1 100.59     LegendNANA
16:00 Legend Double Dagger 7.6 -5.1 40 28 9 24.1 100.60     LegendNANA
17:00 Legend Double Dagger 6.1 -3.3 51 23 7 24.1 100.63     Cloudy
18:00 Legend Double Dagger 4.8 -2.5 59 23 5 24.1 100.64     LegendNANA
19:00 Legend Double Dagger 2.6 -0.2 82 36 1 24.1 100.65     LegendNANA
20:00 Legend Double Dagger 2.2 -0.2 84 36 1 24.1 100.65     Cloudy
21:00 Legend Double Dagger 3.1 -0.4 78 27 6 24.1 100.72     LegendNANA
22:00 Legend Double Dagger 2.6 -0.7 79 11 3 22.5 100.68     LegendNANA
23:00 Legend Double Dagger 2.3 -0.3 83 36 2 24.1 100.63     Cloudy

Notes on Data Quality.

Legend

  • E = Estimated
  • M = Missing
  • NA = Not Available
  • ‡ = Partner data that is not subject to review by the National Climate Archives
Date modified: